Location: Bidwell Hollow
(37.7387°N, 90.1707°W)
Time: 23:11:31
(UTC+00:00)

Transit 2A - Pass Details

Date: 16 May 2026
Orbit: 595 x 949 km, 66.7° (Epoch: 6 June)

Event Time Altitude Azimuth Distance (km) Brightness Sun altitude
Rises 06:47:12 0° 330° (NNW) 3,118 9.8 -31.9°
Reaches altitude 10° 06:49:39 10° 328° (NNW) 2,141 8.8 -31.8°
Enters shadow 06:51:40 24° 325° (NW) 1,365 7.6 -31.7°
